Regional Weather Roundup
Issued by NWS

Home | Current Version | Previous Version | Text Only | Print | Product List | Glossary Off
Versions: 1 2 3 4 5 6 7 8 9 10 11 12 13 14 15 16 17 18 19 20 21 22 23 24 25 26 27 28 29 30 31 32 33 34 35 36 37 38 39 40 41 42 43 44 45 46 47 48 49 50

000
ASUS43 KIND 260459
RWRIN

WEATHER ROUNDUP FOR INDIANA
NATIONAL WEATHER SERVICE INDIANAPOLIS IN
100 AM EDT FRI MAY 26 2017

NOTE: "FAIR" INDICATES FEW OR NO CLOUDS BELOW 12,000 FEET WITH NO
SIGNIFICANT WEATHER AND/OR OBSTRUCTIONS TO VISIBILITY.

* - STATION DOES NOT REPORT WEATHER SUCH AS PRECIPITATION OR FOG.

+ - STATION NOT QUALITY CONTROLLED BY THE NATIONAL WEATHER SERVICE.
    USE DATA WITH CAUTION...ESPECIALLY DEWPOINT AND RELATIVE
    HUMIDITY OBSERVATIONS.

INZ001>003-010>013-019-020-260600-
NORTHWEST INDIANA

CITY           SKY/WX    TMP DP  RH WIND       PRES   REMARKS
MICHIGAN CITY+ CLEAR     46  46 100 CALM      29.79R
MONTICELLO +   CLEAR     54  52  91 W3        29.79R
RENSSELAER +   CLEAR     54  50  87 CALM      29.80S

$$

LMZ046-743>745-260600-
SOUTHERN LAKE MICHIGAN

STATION/POSITION TIME  TEMP    WIND        PRES    WAVE
                       AIR SEA DIR/SP/G            HT
                 (UTC) (F)     (DEG/KT/KT) (MB)    (FT)
BURNS HARBOR     0440   54     280/  5/  6 1009.1R
MICHIGAN CITY    0430   52     240/  9/ 11   N/A
5NW MICH CITY    0450   51 51  260/  6/ 10   N/A     2

$$

INZ004-005-014>016-021>024-260600-
NORTH CENTRAL INDIANA

CITY           SKY/WX    TMP DP  RH WIND       PRES   REMARKS
GOSHEN         MOCLDY    52  48  86 W12       29.74R
SOUTH BEND     CLOUDY    50  49  96 NW8       29.76S

$$

INZ006>009-017-018-025>027-260600-
NORTHEAST INDIANA

CITY           SKY/WX    TMP DP  RH WIND       PRES   REMARKS
ANGOLA *+      CLEAR     54  45  71 W6        29.71R
FORT WAYNE     PTCLDY    56  52  86 W12       29.74R
KENDALLVILLE + PTCLDY    53  53  99 W8        29.73R

$$

INZ028-029-035-036-043>045-051>053-260600-
WEST CENTRAL INDIANA

CITY           SKY/WX    TMP DP  RH WIND       PRES   REMARKS
CRAWFORDSVL +  CLEAR     50  50 100 CALM      29.82R FOG
GREENCASTLE +  CLEAR     52  50  93 CALM      29.83R FOG
LAFAYETTE      CLEAR     54  54 100 CALM      29.80R
TERRE HAUTE    CLEAR     54  52  93 CALM      29.82R FOG

$$

INZ030>032-037>040-046>048-054>057-064-065-260600-
CENTRAL INDIANA

CITY           SKY/WX    TMP DP  RH WIND       PRES   REMARKS
INDIANAPOLIS   CLEAR     54  51  90 SW7       29.81R
-EAGLE CREEK   CLEAR     57  53  86 W7        29.80R
KOKOMO +       PTCLDY    56  53  90 W9        29.79R
SHELBYVILLE    CLEAR     58  52  80 W8        29.80R

$$

INZ033-034-041-042-049-050-058-059-260600-
EAST CENTRAL INDIANA

CITY           SKY/WX    TMP DP  RH WIND       PRES   REMARKS
MUNCIE         CLEAR     58  54  86 W7        29.77R
RICHMOND +     PTCLDY    55  54  94 W9        29.79R

$$

INZ060-061-067>069-081>083-085>088-260600-
SOUTHWEST INDIANA

CITY           SKY/WX    TMP DP  RH WIND       PRES   REMARKS
EVANSVILLE     CLEAR     58  54  86 CALM      29.83R
HUNTINGBURG *+ CLEAR     60  55  83 CALM      29.84R

$$

INZ062-063-066-070>080-084-089>092-260600-
SOUTH CENTRAL AND SOUTHEAST INDIANA

CITY           SKY/WX    TMP DP  RH WIND       PRES   REMARKS
BLOOMINGTON    CLEAR     53  50  89 CALM      29.83R FOG
MADISON *+     CLEAR     55  54  94 CALM      29.85R
SEYMOUR +      CLEAR     55  55 100 S3        29.82R

$$





USA.gov is the U.S. government's official web portal to all federal, state and local government web resources and services.